Left ArrowRight Arrow

Hourly Observations for May 5, 2016

Temp ( °F °C ) Dew Point ( °F °C ) Humidity (%) Winds ( mph kmh ) Pressure ( in mb ) Visibility ( mi km ) Precip ( " mm )
12:51 am 00:51 Cloudy 49 9.4 41 5 74 74 NE 3 6 29.73 1007 10 16 0.00 0.00
1:51 am 01:51 Cloudy 49 9.4 41 5 74 74 NNE 6 9 29.72 1007 10 16 0.00 0.00
2:51 am 02:51 Cloudy with Mist and Fog 48 8.9 42 5.6 80 80 NNE 6 9 29.73 1007 6 10 0.00 0.03
3:02 am 03:02 Cloudy with Mist and Fog 46 8 43 6 87 87 NNE 5 7 29.71 1006 5 8 0.00 0.00
3:19 am 03:19 Cloudy with Mist and Fog 46 8 43 6 87 87 N 5 7 29.71 1006 4 6 0.00 0.00
3:51 am 03:51 Cloudy with Mist and Fog 47 8.3 43 6.1 86 86 NNE 5 7 29.71 1006 4 6 0.00 0.00
3:58 am 03:58 Cloudy with Mist and Fog 46 8 43 6 87 87 N 5 7 29.71 1006 2 3 0.00 0.00
4:51 am 04:51 Cloudy with Mist and Fog 47 8.3 43 6.1 86 86 NE 3 6 29.71 1006 3 4 0.00 0.00
5:11 am 05:11 Cloudy with Mist and Fog 46 8 43 6 87 87 N 6 9 29.71 1006 3 4 0.00 0.00
5:49 am 05:49 Cloudy with Mist and Fog 46 8 43 6 87 87 NNE 7 11 29.68 1005 3 5 0.00 0.00
5:51 am 05:51 Cloudy with Mist and Fog 46 7.8 43 6.1 89 89 N 6 9 29.68 1005 3 5 0.00 0.00
5:58 am 05:58 Cloudy with Mist and Fog 46 8 43 6 87 87 NNE 6 9 29.68 1005 3 5 0.00 0.00
6:51 am 06:51 Cloudy with Mist and Fog 47 8.3 42 5.6 83 83 NNE 7 11 29.68 1005 6 10 0.00 0.00
7:10 am 07:10 Mostly Cloudy with Mist and Fog 48 9 43 6 82 82 N 8 13 29.71 1006 8 13 0.00 0.00
7:51 am 07:51 Mostly Cloudy with Mist and Fog 48 8.9 42 5.6 80 80 NNE 5 7 29.70 1006 8 13 0.00 0.00
8:51 am 08:51 Cloudy with Mist and Fog 50 10 42 5.6 74 74 NNE 6 9 29.69 1006 10 16 0.00 0.00
8:58 am 08:58 Cloudy with Mist and Fog 50 10 41 5 71 71 NNE 9 15 29.71 1006 10 16 0.00 0.00
9:51 am 09:51 Cloudy 51 10.6 41 5 69 69 N 12 19 29.70 1006 10 16 0.00 0.00
10:51 am 10:51 Cloudy 52 11.1 41 5 66 66 NE 7 11 29.70 1006 10 16 0.00 0.00
11:51 am 11:51 Cloudy 53 11.7 41 5 64 64 N 12 19 29.69 1005 10 16 0.00 0.00
12:51 pm 12:51 Cloudy 56 13.3 42 5.6 60 60 NE 12 19 29.67 1005 10 16 0.00 0.00
1:22 pm 13:22 Cloudy 57 14 43 6 59 59 NNE 9 15 29.65 1004 10 16 0.00 0.00
1:51 pm 13:51 Cloudy 57 13.9 42 5.6 58 58 NE 8 13 29.65 1004 10 16 0.00 0.00
2:51 pm 14:51 Cloudy 58 14.4 42 5.6 56 56 NE 10 17 29.63 1003 10 16 0.00 0.00
3:51 pm 15:51 Cloudy 58 14.4 42 5.6 56 56 NNE 13 20 29.62 1003 10 16 0.00 0.00
4:51 pm 16:51 Cloudy 57 13.9 42 5.6 58 58 NE 10 17 29.62 1003 10 16 0.00 0.00
5:51 pm 17:51 Cloudy 57 13.9 41 5 55 55 NE 10 17 29.63 1003 10 16 0.00 0.00
6:51 pm 18:51 Cloudy 57 13.9 42 5.6 58 58 NE 9 15 29.63 1003 10 16 0.00 0.00
7:51 pm 19:51 Cloudy 56 13.3 42 5.6 60 60 NNE 7 11 29.64 1004 10 16 0.00 0.00
8:36 pm 20:36 Cloudy 55 13 43 6 63 63 NNE 6 9 29.65 1004 10 16 0.00 0.00
8:51 pm 20:51 Cloudy 56 13.3 42 5.6 60 60 NNE 7 11 29.66 1004 10 16 0.00 0.00
9:08 pm 21:08 Cloudy 55 13 43 6 63 63 NE 9 15 29.65 1004 10 16 0.00 0.00
9:51 pm 21:51 Cloudy 55 12.8 44 6.7 67 67 ENE 8 13 29.67 1005 10 16 0.00 0.00
10:51 pm 22:51 Cloudy 54 12.2 44 6.7 69 69 NE 5 7 29.67 1005 10 16 0.00 0.00
11:30 pm 23:30 Cloudy 54 12 43 6 67 67 NE 7 11 29.68 1005 10 16 0.00 0.00
11:51 pm 23:51 Cloudy 53 11.7 43 6.1 69 69 NE 10 17 29.67 1005 10 16 0.00 0.00

Powered by Vaisala Xweather